AirNav   ProFlight Series 2 Aviation Headset
 
 677 users online  

9MI0 C M H S Heliport
Ypsilanti, Michigan, USA

GOING TO YPSILANTI?


FAA INFORMATION EFFECTIVE 18 JUNE 2020

Location

FAA Identifier: 9MI0
Lat/Long: 42-15-50.4500N 083-39-13.2800W
42-15.840833N 083-39.221333W
42.2640139,-83.6536889
(estimated)
Elevation: 835 ft. / 254.5 m (surveyed)
Variation: 05W (1985)
From city: 2 miles N of YPSILANTI, MI
Time zone: UTC -4 (UTC -5 during Standard Time)
Zip code: 48197

Heliport Operations

Heliport use: Private use. Permission required prior to landing
Activation date: 11/1983
Control tower: no
ARTCC: CLEVELAND CENTER
FSS: LANSING FLIGHT SERVICE STATION
Attendance: CONTINUOUS
Wind indicator: yes
Segmented circle: no
Lights: FOR PERIMETER LGTS CALL 734-712-5959

Heliport Communications

WX ASOS at ARB (5 nm SW): 134.55 (734-668-7173)
WX ASOS at YIP (6 nm E): PHONE 734-961-6843
WX ASOS at DTW (14 nm E): 133.675 (734-955-5015)

Nearby radio navigation aids

VOR radial/distance  VOR name  Freq  Var
SVMr200/9.1SALEM VORTAC114.3003W
DXOr289/13.1DETROIT VOR/DME113.4006W
CRLr329/15.6CARLETON VOR/DME115.7003W

 
NDB name  Hdg/Dist  Freq  Var  ID
TECUMSEH043/17.323906WTCU - -.-. ..-
GROSSE ILE301/24.341907WRYS .-. -.-- ...
ADRIAN045/30.327806WADG .- -.. --.

Heliport Services

Runway Information

Helipad H1

Dimensions: 80 x 60 ft. / 24 x 18 m
Surface: concrete
Runway edge lights: PERI
Operational restrictions: APP/DEP OPNS WITHIN 030-150 DEG.
Latitude: 42-15.840833N
Longitude: 083-39.221333W
Elevation: 835.0 ft.
Traffic pattern: leftleft
Markings: basic

Heliport Ownership and Management from official FAA records

Ownership: Privately-owned
Owner: SAINT JOSEPH MERCY HEALTH SYSTEM
5301 E HURON RIVER DR BOX 992
ANN ARBOR, MI 48106
Phone 734-712-3456
Manager: TOM TOCCO HELIPORT MANAGER
5301 E. HURON RIVER DRIVE BOX 992
ANN ARBOR, MI 48106
Phone 734-712-5959
OTHER CONTACT: JUDY KETTENSTOCK. 734-712-5959

Heliport Operational Statistics

Aircraft based on the field: 1
Helicopters: 1
    

Additional Remarks

FOR CD CTC DETROIT APCH AT 800-499-8181.

Instrument Procedures

There are no published instrument procedures at 9MI0.

Some nearby airports with instrument procedures:

KARB - Ann Arbor Municipal Airport (5 nm SW)
KYIP - Willow Run Airport (6 nm E)
1D2 - Canton-Plymouth-Mettetal Airport (10 nm NE)
KDTW - Detroit Metropolitan Wayne County Airport (14 nm E)
Y47 - Oakland Southwest Airport (14 nm N)
 
Loc | Ops | Rwys | IFR | FBO | Links
Com | Nav | Svcs | Stats | Notes
Area around 9MI0 (C M H S Heliport)
 
Road maps at: MapQuest Bing Google
 
Aerial photo
No photo
 
Sectional chart

 
Airport distance calculator
Flying to C M H S Heliport? Find the distance to fly.

From to 9MI0

Sunrise and sunset
Times for 10-Jul-2020
 Local
(UTC-4)
 Zulu
(UTC)
Morning civil twilight05:3509:35
Sunrise06:0910:09
Sunset21:1101:11
Evening civil twilight21:4501:45

Current date and time
Zulu (UTC)  11-Jul-2020 03:52:46
Local (UTC-4)  10-Jul-2020 23:52:46
 
METAR
KARB 
5nm SW 
734-668-7173
110327Z AUTO 33011G21KT 10SM -RA FEW018 BKN025 OVC039 21/19 A2976 RMK AO2 P0006 T02060189
KYIP 
6nm E 
110327Z 32013KT 10SM BKN016 BKN024 OVC080 23/21 A2976 RMK AO2 RAE16 P0000 T02330206
KDTW 
14nm E 
110253Z 32011KT 9SM BKN015 BKN025 OVC040 22/20 A2973 RMK AO2 LTG DSNT NE RAE53 SLP061 P0003 60046 T02220200 52005
TAF
KYIP 
6nm E 
101739Z 1018/1118 VRB05KT P6SM SCT030 BKN050 TEMPO 1018/1020 3SM -TSRA BKN025 OVC040CB FM102000 24006KT 5SM SHRA VCTS SCT020 BKN030 OVC050CB FM110200 31011KT P6SM -SHRA BKN025 OVC050 TEMPO 1102/1106 3SM SHRA FM111000 30010KT P6SM SCT050 FM111600 30014KT P6SM SCT050 BKN060
KDTW 
14nm E 
102048Z 1021/1124 08006KT P6SM SCT045 BKN100 FM102230 24006KT 5SM SHRA VCTS SCT020 BKN030 OVC050CB FM110200 31011KT P6SM -SHRA BKN025 OVC050 TEMPO 1102/1106 3SM SHRA FM111000 30010KT P6SM SCT050 FM111600 30014KT P6SM SCT050 BKN060
NOTAMs
Click for the latest NOTAMs
NOTAMs are issued by the DoD/FAA and will open in a separate window not controlled by AirNav.

 

 
 

Would you like to see your business listed on this page?

 If your business provides an interesting product or service to pilots, flight crews, aircraft, or users of the C M H S Heliport, you should consider listing it here.  To start the listing process, click on the button below
 
Add a business
 

Other Pages about C M H S Heliport

Update a link
 
Copyright © AirNav, LLC. All rights reserved. Privacy Policy  Contact